Wind_Speed
21 23 27 29 29 29 28 26 25 24 22 20 20 20 20 22 22 21 19 18 18 18 18 18 18 18 18 18 16 15 14 14 13 11 11 10 10 11 11 12 12 13 14 15 16 17 18 19 20
21 22 25 28 30 29 29 29 28 26 23 21 20 20 21 22 23 23 22 20 19 19 19 19 19 19 19 19 18 16 16 15 14 13 12 11 11 12 12 12 13 13 14 15 17 18 19 20 21
23 24 25 26 26 27 29 31 31 29 26 24 22 21 21 22 22 23 23 22 21 21 20 20 20 20 20 19 19 18 17 16 15 14 14 13 13 13 13 13 14 14 14 14 15 16 17 19 20
26 27 28 26 23 23 29 32 32 31 29 26 24 22 22 21 23 23 23 23 23 23 23 23 22 21 21 20 19 18 17 17 16 16 15 15 14 14 14 14 14 14 14 15 15 16 17 18 19
29 30 30 27 21 22 27 32 33 33 31 29 26 24 23 23 23 23 23 24 24 25 25 26 25 24 23 21 20 19 18 18 17 17 17 16 15 15 14 14 15 15 15 15 15 16 17 18 19
31 31 31 27 22 23 27 31 33 34 34 32 29 27 26 25 24 24 23 24 24 25 26 26 27 27 25 22 21 20 19 19 19 19 19 18 17 16 15 15 15 15 14 14 14 15 16 16 17
31 31 31 27 25 25 27 30 32 34 35 35 33 30 29 28 27 26 25 24 24 24 25 26 27 27 25 23 21 21 20 20 20 20 20 20 18 18 17 16 16 15 15 15 15 16 18 19 20
31 32 30 26 24 26 29 32 31 32 34 36 36 35 33 31 30 29 27 26 25 24 24 25 26 25 24 23 22 21 21 21 21 21 22 21 20 20 20 19 18 18 18 18 19 20 22 24 25
31 32 28 23 24 28 32 34 35 33 33 35 36 37 36 35 34 33 31 30 28 27 26 27 27 26 26 24 23 22 21 21 22 23 23 23 23 22 22 22 21 21 21 21 22 23 24 26 27
31 30 25 24 26 30 34 37 37 36 35 35 36 37 37 37 37 36 35 33 31 30 29 29 29 29 28 27 26 24 22 22 23 24 25 25 25 25 24 24 23 24 23 24 24 25 26 26 25
31 28 26 27 28 30 33 37 39 39 37 35 36 36 35 36 37 37 37 36 34 33 31 31 31 31 30 30 29 27 25 23 23 24 26 27 28 27 26 26 25 25 26 26 26 27 27 26 25
31 29 27 28 28 29 31 34 38 39 36 36 35 35 34 34 34 36 37 38 36 34 33 32 33 34 33 33 31 30 28 26 25 25 27 29 30 29 28 27 27 27 27 27 27 28 28 27 25
30 28 27 27 27 28 30 32 36 38 36 37 35 33 32 32 33 34 35 37 36 35 34 34 34 35 36 36 35 34 32 30 28 28 29 30 30 30 29 28 28 28 28 28 29 29 29 29 28
29 27 26 25 26 26 28 32 36 33 37 37 36 33 31 31 31 33 33 34 35 36 36 35 35 35 36 37 37 36 35 33 31 30 31 31 31 30 29 28 29 29 29 29 30 30 30 31 30
30 28 26 25 25 26 27 29 32 32 38 39 37 35 33 31 31 31 32 34 36 37 37 36 36 36 36 36 37 37 36 35 34 33 32 31 31 30 29 29 29 30 30 31 31 31 32 32 31
30 29 27 26 26 26 27 26 29 33 37 39 39 39 37 34 32 31 32 34 37 38 39 38 37 37 37 37 37 36 36 36 36 35 33 33 32 31 30 30 30 31 31 31 32 33 34 34 33
30 30 29 28 28 27 27 26 27 31 34 37 40 42 42 39 36 34 34 35 37 39 41 40 39 38 38 37 37 36 36 36 36 36 35 34 33 32 32 31 32 32 32 33 33 34 34 34 34
31 31 31 30 30 30 31 31 29 31 33 35 39 42 44 44 41 39 38 37 38 40 42 42 41 40 39 38 36 35 35 36 37 36 35 35 35 34 33 33 34 34 34 34 35 35 35 35 35
30 30 31 32 33 35 36 37 35 35 35 36 39 42 45 46 46 46 43 41 40 42 42 42 42 43 42 40 37 36 36 37 38 37 36 36 35 35 35 35 35 35 35 35 36 36 36 37 38
29 31 33 36 38 40 41 42 41 41 40 40 42 44 46 48 49 50 49 46 43 43 43 43 43 44 44 42 40 38 38 38 38 37 36 35 35 35 36 37 37 37 37 38 38 38 39 40 41
31 34 37 40 43 45 48 49 47 48 46 46 46 46 47 49 50 51 51 50 47 44 44 44 43 44 45 44 42 40 40 39 38 36 35 35 36 36 37 38 38 39 40 40 41 41 42 43 44
34 37 41 44 48 50 52 57 54 54 52 50 49 50 50 50 51 51 52 52 49 46 45 44 43 44 45 44 43 41 41 40 38 37 36 36 37 37 38 39 40 41 42 43 43 44 45 46 47
37 41 44 48 51 55 57 62 61 60 58 55 54 54 54 53 52 52 52 52 51 49 47 45 44 44 44 44 42 42 41 40 38 37 37 37 38 39 39 40 41 42 43 44 45 46 47 49 50
39 43 46 49 52 57 56 60 63 59 61 60 59 58 57 57 55 53 53 53 52 51 49 46 44 44 44 43 42 41 41 40 39 37 38 38 39 39 40 41 42 43 44 45 46 48 49 50 52
38 41 45 49 52 54 55 58 58 55 59 61 62 62 61 59 57 55 53 53 53 51 49 46 44 43 43 42 41 40 41 40 39 38 38 39 39 39 40 41 42 43 44 46 47 48 50 51 53
38 41 44 49 52 54 56 55 50 49 54 58 60 60 61 60 59 56 53 53 53 51 49 46 44 43 43 42 41 40 40 40 39 39 39 39 39 40 41 42 43 43 44 46 47 49 50 52 53
38 40 42 46 49 50 50 48 44 41 45 48 51 54 56 57 58 56 53 52 52 51 49 46 44 44 43 42 41 40 40 40 40 39 39 39 40 41 42 42 43 43 44 46 47 49 51 53 53
36 37 38 41 46 49 48 44 39 35 38 39 40 42 46 50 54 55 53 51 50 49 48 46 45 44 43 42 41 41 40 40 39 38 38 39 40 41 41 42 42 43 44 45 47 50 52 53 55
33 33 36 41 44 47 47 40 35 32 32 34 34 35 38 43 50 53 52 50 49 48 46 45 45 44 44 43 41 40 39 39 39 38 38 39 40 40 41 41 42 43 44 46 49 50 52 54 57
30 31 35 39 41 42 43 35 30 28 28 29 30 31 34 39 46 51 50 48 47 45 44 44 44 44 43 42 41 40 39 39 38 38 38 39 40 40 41 42 42 44 45 47 49 52 54 57 59
Wind_Direction
245 246 246 247 246 244 244 244 246 247 247 248 248 248 250 249 247 246 245 245 249 251 252 252 251 252 256 259 263 268 273 276 275 271 267 265 261 257 256 259 262 262 262 263 265 267 270 272 275
248 249 249 248 247 246 245 244 244 245 245 245 244 245 247 248 247 248 245 245 246 249 251 252 251 251 253 257 261 265 270 274 273 271 268 268 268 264 261 260 261 262 262 262 264 266 268 271 273
250 251 252 251 250 248 246 244 243 243 242 242 242 243 245 246 248 249 248 248 249 251 254 256 254 252 252 254 258 262 267 270 269 268 265 266 267 266 263 262 262 262 263 265 267 269 271 273 274
252 253 253 254 254 251 247 244 243 242 241 240 240 241 242 243 245 248 250 251 253 256 259 260 259 255 253 253 256 259 262 263 263 262 260 261 263 263 261 262 263 264 265 267 269 271 274 276 278
252 254 255 255 252 250 247 244 242 242 240 239 238 239 241 242 244 247 250 251 253 257 260 261 261 259 256 255 256 257 259 259 258 258 257 257 260 262 261 263 264 264 264 267 270 274 278 280 282
252 255 256 254 247 244 245 245 241 240 241 239 237 237 240 242 244 246 248 251 253 257 261 262 262 262 261 260 258 257 257 256 255 256 256 256 257 259 259 261 263 263 264 268 273 276 278 281 283
252 255 255 251 242 241 244 248 245 242 241 241 240 238 239 240 242 244 246 248 251 256 260 261 261 261 262 262 261 260 259 258 257 256 255 253 254 255 256 256 257 259 262 267 272 276 280 282 284
251 253 253 249 242 239 243 247 248 245 244 244 243 241 240 240 242 244 245 246 249 253 256 255 254 255 257 259 260 261 261 260 259 258 256 253 253 254 255 255 256 259 263 269 276 283 288 289 289
248 251 253 248 239 236 239 245 248 247 245 245 245 244 243 243 243 244 245 246 248 249 251 251 248 248 251 254 256 260 262 262 261 260 258 254 253 254 255 256 258 261 266 273 280 286 291 293 293
247 251 251 243 236 233 235 242 248 249 247 247 248 248 247 245 245 246 246 247 247 247 248 248 246 246 248 250 253 256 260 262 262 262 260 258 256 255 257 258 260 263 268 275 281 287 291 294 293
247 248 245 240 236 235 235 240 247 251 251 251 251 252 251 250 248 247 247 248 249 248 247 246 245 244 245 248 251 255 259 262 264 263 262 261 259 259 259 260 261 265 270 275 281 287 290 292 291
245 244 242 239 238 237 237 240 246 252 253 253 253 254 254 253 251 249 248 248 250 251 251 248 245 244 244 246 250 254 258 262 265 265 263 262 261 261 261 262 263 266 270 275 281 285 288 290 287
241 241 241 239 238 238 239 241 245 249 252 254 255 254 254 253 252 250 249 249 250 251 252 250 248 247 247 248 250 253 256 260 263 265 264 263 262 261 261 262 263 266 270 275 280 284 286 287 285
239 239 239 239 238 238 239 241 245 245 249 251 252 252 252 252 251 249 249 248 248 249 249 250 250 250 250 252 254 256 258 261 262 263 264 265 264 263 262 262 263 266 270 274 278 281 284 286 285
237 239 239 239 239 237 241 245 248 243 246 249 250 250 250 249 248 247 246 245 245 246 247 248 250 251 252 253 255 258 260 262 262 263 264 265 265 264 263 262 263 265 269 273 276 280 283 284 283
236 238 240 241 241 241 246 248 246 247 248 249 250 249 249 248 246 245 244 243 243 244 245 247 249 250 252 254 256 258 260 261 262 262 262 263 264 263 262 262 264 266 269 273 277 281 284 284 283
235 239 242 244 247 248 251 252 246 249 251 251 250 250 250 249 248 247 246 244 243 243 244 245 247 249 251 254 257 260 261 261 261 261 260 260 261 261 261 262 264 267 270 274 279 283 285 285 284
236 241 245 249 251 253 254 256 253 252 255 256 254 253 252 251 249 248 247 246 244 244 244 244 245 247 250 253 257 260 262 262 262 261 259 258 258 260 261 262 263 267 271 275 280 283 286 287 286
241 245 249 252 254 256 257 260 260 259 260 260 257 255 253 252 250 249 248 247 246 246 246 245 244 245 248 251 255 258 260 262 263 262 260 259 258 259 260 261 263 267 271 276 280 283 286 288 288
249 253 256 257 259 260 260 261 263 263 263 261 259 256 254 252 250 249 248 248 247 246 246 246 244 244 246 249 252 256 259 262 264 264 263 261 260 260 260 262 264 268 272 275 279 283 286 288 289
258 262 264 265 266 266 266 263 263 263 263 262 261 258 255 252 250 248 247 246 245 245 245 246 244 244 246 248 251 255 258 261 263 265 264 262 262 261 262 264 266 269 272 276 280 283 286 287 289
267 269 271 272 272 271 270 269 264 265 262 261 260 258 255 252 249 247 246 245 244 243 243 244 244 245 246 248 251 254 257 260 262 262 263 262 262 263 265 267 268 271 274 278 281 284 286 288 289
274 275 276 277 276 275 274 273 268 267 264 260 257 255 254 252 249 245 243 243 241 240 240 241 242 244 245 247 250 253 257 261 263 265 265 263 263 264 266 268 271 274 276 279 282 285 287 289 290
278 279 280 280 279 278 277 275 272 270 268 263 257 253 250 249 248 244 242 240 239 238 238 239 240 242 244 246 249 253 257 260 263 265 265 264 264 265 267 270 273 275 277 280 283 286 288 289 290
281 283 284 283 281 280 278 277 277 273 268 264 258 252 247 245 245 243 240 238 237 237 237 238 238 239 241 244 247 251 255 259 263 265 265 265 265 266 268 271 273 276 279 283 285 287 289 290 291
282 285 286 287 287 286 284 283 283 277 269 264 259 254 247 242 240 240 238 236 235 234 235 235 235 236 239 241 245 249 253 258 262 264 266 266 266 267 269 272 275 278 282 285 287 288 290 291 293
285 287 289 289 289 288 288 288 285 280 272 266 261 255 247 240 236 235 234 233 232 232 232 232 232 233 236 239 242 246 251 256 261 264 266 267 267 269 271 274 278 281 284 286 288 289 291 293 294
287 291 293 293 293 292 293 293 292 283 273 266 261 255 246 236 230 229 229 228 229 229 229 229 229 230 232 236 240 245 250 256 260 264 266 267 269 271 274 277 281 283 285 287 289 291 293 295 296
291 294 295 294 295 296 296 295 293 286 276 268 259 251 242 229 222 222 223 223 224 226 227 227 227 229 231 234 239 244 250 256 261 264 267 269 271 274 277 281 283 285 287 289 291 293 294 296 298
292 295 295 296 298 299 298 298 294 286 273 264 254 244 234 223 215 215 216 218 220 221 223 225 226 228 230 234 238 244 251 257 261 265 268 270 274 277 280 283 285 287 289 291 292 294 296 298 299
Height
5824 5825 5827 5829 5832 5834 5835 5836 5837 5838 5839 5840 5841 5843 5844 5845 5847 5849 5849 5847 5847 5847 5847 5848 5849 5850 5850 5851 5851 5852 5851 5851 5850 5850 5849 5849 5848 5848 5848 5847 5847 5847 5846 5846 5846 5845 5845 5845 5844
5819 5821 5823 5824 5826 5829 5831 5832 5833 5834 5836 5837 5837 5838 5839 5840 5842 5843 5843 5843 5844 5844 5844 5844 5845 5846 5846 5847 5847 5848 5848 5848 5847 5847 5846 5846 5845 5845 5845 5845 5845 5844 5844 5843 5843 5842 5842 5842 5841
5814 5816 5817 5819 5821 5825 5826 5827 5828 5829 5831 5832 5833 5834 5835 5836 5838 5839 5840 5840 5840 5840 5840 5841 5841 5842 5842 5843 5843 5844 5844 5844 5844 5843 5843 5843 5842 5842 5842 5842 5842 5841 5841 5840 5840 5839 5839 5838 5838
5809 5810 5812 5815 5817 5819 5820 5821 5822 5824 5826 5828 5829 5830 5831 5832 5833 5834 5835 5836 5837 5837 5837 5837 5838 5838 5838 5838 5839 5839 5840 5840 5840 5840 5840 5840 5839 5839 5839 5839 5838 5838 5838 5837 5837 5837 5836 5836 5835
5802 5804 5806 5809 5813 5814 5814 5814 5816 5818 5820 5823 5824 5825 5826 5828 5829 5830 5831 5832 5833 5833 5834 5834 5834 5834 5834 5834 5834 5835 5836 5836 5836 5836 5836 5836 5836 5836 5835 5835 5835 5835 5834 5834 5834 5834 5833 5833 5832
5797 5798 5800 5803 5807 5808 5808 5808 5810 5812 5814 5817 5819 5820 5821 5823 5824 5825 5826 5827 5829 5829 5829 5829 5829 5829 5830 5830 5830 5831 5831 5832 5832 5832 5833 5832 5832 5832 5832 5832 5831 5831 5831 5831 5831 5831 5830 5829 5828
5791 5792 5794 5798 5801 5802 5803 5802 5805 5807 5809 5811 5813 5816 5816 5818 5819 5820 5822 5823 5824 5824 5825 5825 5825 5825 5826 5826 5827 5827 5827 5828 5828 5828 5829 5829 5829 5828 5828 5828 5828 5828 5828 5828 5827 5827 5826 5825 5824
5785 5786 5787 5791 5795 5797 5797 5797 5799 5801 5803 5805 5808 5810 5811 5813 5814 5815 5817 5818 5819 5820 5820 5820 5820 5821 5821 5822 5822 5823 5823 5823 5824 5824 5825 5825 5825 5825 5825 5825 5825 5825 5825 5824 5823 5822 5821 5820 5819
5778 5780 5782 5786 5788 5790 5791 5791 5792 5795 5798 5799 5801 5804 5806 5808 5809 5810 5811 5813 5814 5815 5815 5815 5816 5816 5817 5817 5818 5818 5818 5819 5819 5819 5820 5820 5820 5820 5821 5821 5821 5821 5820 5820 5819 5818 5817 5815 5813
5771 5774 5778 5780 5781 5782 5784 5784 5785 5788 5791 5794 5795 5797 5800 5802 5803 5805 5806 5807 5808 5809 5810 5810 5811 5812 5812 5813 5813 5813 5814 5814 5814 5815 5815 5815 5815 5816 5816 5816 5816 5816 5816 5815 5814 5813 5811 5809 5807
5765 5768 5770 5771 5773 5775 5777 5777 5778 5780 5784 5788 5789 5791 5793 5795 5798 5799 5800 5801 5802 5803 5805 5805 5806 5806 5807 5808 5808 5809 5809 5809 5810 5810 5810 5810 5810 5810 5811 5811 5811 5811 5810 5810 5809 5807 5806 5804 5802
5759 5761 5763 5764 5766 5768 5770 5771 5772 5773 5778 5781 5782 5784 5786 5789 5791 5792 5794 5795 5797 5798 5799 5800 5801 5801 5802 5802 5803 5804 5804 5805 5805 5805 5804 5804 5804 5805 5805 5805 5805 5805 5804 5804 5803 5801 5800 5798 5796
5752 5754 5756 5758 5760 5762 5763 5765 5765 5767 5771 5772 5774 5777 5779 5782 5784 5785 5787 5789 5791 5792 5793 5794 5795 5796 5796 5797 5798 5798 5799 5800 5800 5799 5799 5798 5799 5799 5800 5799 5799 5799 5798 5797 5796 5795 5794 5792 5790
5746 5748 5750 5752 5753 5755 5756 5757 5757 5763 5764 5764 5767 5770 5772 5774 5776 5778 5780 5782 5784 5785 5786 5787 5788 5789 5790 5791 5792 5793 5794 5794 5794 5794 5793 5793 5793 5794 5794 5793 5793 5792 5792 5791 5790 5789 5788 5786 5784
5739 5741 5743 5745 5746 5748 5749 5750 5752 5757 5755 5756 5759 5762 5764 5767 5768 5770 5772 5774 5776 5777 5778 5780 5781 5782 5784 5785 5786 5787 5788 5789 5788 5788 5788 5788 5788 5788 5788 5787 5787 5786 5785 5784 5783 5782 5781 5779 5777
5731 5734 5737 5738 5739 5740 5743 5745 5747 5747 5747 5749 5751 5753 5755 5758 5761 5763 5765 5766 5768 5770 5771 5773 5774 5775 5776 5778 5779 5780 5781 5782 5782 5782 5782 5782 5782 5782 5781 5781 5780 5779 5778 5778 5776 5775 5773 5771 5770
5724 5726 5729 5731 5732 5733 5735 5738 5740 5739 5740 5741 5743 5744 5746 5749 5753 5756 5757 5759 5760 5762 5764 5766 5767 5768 5769 5770 5772 5773 5774 5775 5775 5775 5775 5775 5775 5775 5775 5774 5773 5772 5772 5771 5769 5768 5766 5764 5762
5717 5719 5721 5723 5724 5725 5727 5730 5732 5732 5732 5733 5734 5735 5737 5740 5744 5746 5748 5750 5752 5754 5756 5758 5760 5762 5762 5763 5765 5766 5767 5767 5768 5768 5768 5768 5769 5768 5768 5767 5767 5766 5765 5764 5763 5761 5758 5756 5754
5709 5711 5712 5714 5714 5715 5718 5720 5722 5723 5724 5726 5726 5726 5727 5730 5733 5735 5738 5741 5743 5745 5747 5750 5752 5754 5755 5756 5758 5759 5760 5760 5760 5760 5761 5761 5761 5761 5761 5760 5760 5759 5758 5757 5755 5753 5752 5749 5746
5701 5702 5703 5704 5703 5705 5708 5711 5713 5713 5715 5715 5715 5715 5716 5718 5720 5723 5726 5730 5734 5737 5739 5741 5744 5746 5748 5749 5751 5752 5753 5752 5753 5753 5754 5754 5754 5754 5754 5753 5752 5752 5751 5749 5748 5746 5744 5741 5738
5693 5694 5693 5693 5693 5694 5695 5699 5703 5702 5703 5703 5703 5703 5704 5706 5708 5711 5714 5718 5723 5727 5730 5733 5735 5737 5739 5741 5743 5745 5745 5745 5746 5746 5747 5747 5746 5746 5746 5745 5745 5744 5743 5741 5739 5737 5735 5733 5730
5685 5684 5683 5682 5681 5682 5683 5681 5691 5689 5690 5690 5690 5689 5690 5692 5695 5698 5702 5706 5711 5716 5720 5723 5726 5729 5731 5733 5735 5737 5738 5738 5738 5739 5739 5739 5739 5739 5738 5737 5737 5735 5734 5733 5731 5728 5725 5722 5719
5675 5674 5673 5670 5668 5668 5669 5662 5672 5673 5674 5674 5674 5674 5674 5677 5681 5685 5689 5694 5699 5704 5708 5712 5716 5719 5722 5725 5727 5729 5730 5731 5731 5732 5732 5732 5732 5731 5730 5729 5728 5727 5725 5723 5721 5718 5715 5711 5708
5665 5664 5661 5657 5653 5653 5655 5644 5650 5657 5653 5653 5654 5656 5657 5660 5665 5671 5675 5680 5686 5691 5696 5701 5706 5710 5713 5716 5719 5721 5722 5723 5723 5724 5724 5724 5724 5723 5722 5721 5719 5718 5716 5714 5711 5708 5704 5701 5697
5656 5653 5649 5644 5640 5639 5636 5629 5634 5638 5632 5629 5630 5634 5638 5643 5649 5656 5662 5668 5674 5680 5686 5691 5696 5700 5704 5708 5711 5713 5715 5715 5716 5716 5717 5716 5716 5715 5713 5712 5710 5708 5706 5703 5700 5697 5693 5689 5685
5646 5643 5639 5633 5627 5623 5617 5615 5619 5618 5611 5607 5608 5611 5617 5625 5633 5641 5648 5655 5662 5669 5675 5681 5686 5691 5695 5699 5703 5705 5707 5708 5709 5709 5709 5708 5707 5706 5704 5703 5700 5698 5696 5693 5689 5686 5681 5677 5673
5636 5632 5627 5621 5614 5607 5603 5602 5603 5600 5593 5588 5588 5592 5598 5607 5616 5626 5635 5643 5651 5658 5665 5671 5676 5681 5686 5691 5694 5697 5699 5700 5701 5701 5701 5700 5699 5697 5695 5693 5691 5688 5685 5682 5678 5674 5670 5665 5661
5627 5623 5617 5609 5602 5594 5591 5589 5588 5584 5577 5575 5574 5575 5581 5589 5600 5610 5621 5631 5639 5647 5655 5661 5666 5672 5677 5682 5685 5689 5691 5692 5693 5693 5693 5692 5691 5689 5687 5684 5682 5679 5675 5671 5668 5663 5658 5654 5649
5619 5615 5608 5600 5593 5586 5578 5579 5575 5570 5565 5562 5562 5563 5567 5574 5584 5596 5608 5619 5628 5637 5645 5652 5657 5663 5668 5673 5678 5681 5683 5685 5685 5685 5685 5684 5682 5680 5678 5675 5672 5669 5665 5661 5657 5652 5647 5642 5636
5611 5607 5600 5592 5585 5576 5566 5567 5564 5558 5552 5551 5551 5552 5555 5562 5572 5584 5597 5608 5619 5628 5637 5644 5650 5655 5661 5666 5670 5673 5675 5677 5677 5677 5676 5675 5673 5671 5669 5666 5662 5659 5655 5651 5646 5641 5636 5630 5623